WZZ6779 LIME-LBSF

Flight info

Callsign WZZ6779
Flight time N/A
Altitude 37000
Route OSKOR L615 NEVNI DCT NOBMI DCT ALBET DCT LAREN DCT BASOG DCT PUL DCT SONIK DCT TORTO DCT NISVA
Aircraft A321/M-SDE1E2E3FGIJ1J4RWXY/LB1

Departure

Time 2026-04-27 14:23
Airport Il Caravaggio International Airport (LIME)

Arrival

Time N/A
Airport Sofia Airport (LBSF)
Time Latitude Longitude Altitude Speed Heading
2026-04-27 14:00 45.66685 9.69801 788 ft 0 kts 195°
2026-04-27 14:13 45.66686 9.69801 815 ft 1 kts 195°
2026-04-27 14:14 45.66709 9.69810 787 ft 4 kts 194°
2026-04-27 14:14 45.66735 9.69819 787 ft 3 kts 194°
2026-04-27 14:14 45.66757 9.69824 787 ft 4 kts 167°
2026-04-27 14:14 45.66777 9.69806 787 ft 4 kts 119°
2026-04-27 14:15 45.66785 9.69780 787 ft 0 kts 105°
2026-04-27 14:17 45.66783 9.69788 787 ft 3 kts 106°
2026-04-27 14:17 45.66771 9.69849 787 ft 8 kts 105°
2026-04-27 14:17 45.66754 9.69938 787 ft 11 kts 105°
2026-04-27 14:18 45.66733 9.70048 787 ft 12 kts 104°
2026-04-27 14:18 45.66710 9.70174 787 ft 14 kts 105°
2026-04-27 14:18 45.66683 9.70319 787 ft 16 kts 104°
2026-04-27 14:18 45.66654 9.70480 787 ft 18 kts 105°
2026-04-27 14:19 45.66621 9.70655 787 ft 19 kts 104°
2026-04-27 14:19 45.66586 9.70843 787 ft 20 kts 104°
2026-04-27 14:19 45.66549 9.71042 787 ft 21 kts 105°
2026-04-27 14:19 45.66497 9.71245 787 ft 22 kts 106°
2026-04-27 14:20 45.66457 9.71457 787 ft 22 kts 105°
2026-04-27 14:20 45.66446 9.71663 787 ft 21 kts 76°
2026-04-27 14:20 45.66471 9.71858 787 ft 20 kts 97°
2026-04-27 14:20 45.66440 9.72036 787 ft 18 kts 104°
2026-04-27 14:21 45.66407 9.72220 787 ft 20 kts 105°
2026-04-27 14:21 45.66375 9.72402 787 ft 16 kts 99°
2026-04-27 14:21 45.66389 9.72553 787 ft 15 kts 66°
2026-04-27 14:21 45.66437 9.72550 787 ft 7 kts 298°
2026-04-27 14:22 45.66444 9.72519 787 ft 0 kts 285°
2026-04-27 14:22 45.66477 9.72344 787 ft 56 kts 284°
2026-04-27 14:22 45.66641 9.71460 788 ft 128 kts 285°
2026-04-27 14:22 45.66912 9.70003 1021 ft 161 kts 284°
2026-04-27 14:23 45.67102 9.68460 1799 ft 159 kts 269°
2026-04-27 14:23 45.66860 9.66919 2512 ft 162 kts 245°
2026-04-27 14:23 45.66181 9.65519 2857 ft 183 kts 226°
2026-04-27 14:23 45.65299 9.64198 3520 ft 186 kts 225°
2026-04-27 14:24 45.64391 9.62871 4191 ft 188 kts 225°
2026-04-27 14:24 45.63468 9.61525 4856 ft 190 kts 225°
2026-04-27 14:24 45.62541 9.60170 5509 ft 192 kts 226°
2026-04-27 14:24 45.61612 9.58809 6210 ft 195 kts 226°
2026-04-27 14:25 45.60613 9.57374 6593 ft 213 kts 226°
2026-04-27 14:25 45.59539 9.55850 7047 ft 222 kts 225°
2026-04-27 14:25 45.58230 9.54666 7673 ft 228 kts 197°
2026-04-27 14:25 45.56648 9.54573 8380 ft 233 kts 165°
2026-04-27 14:26 45.55236 9.55670 9133 ft 235 kts 133°
2026-04-27 14:26 45.54407 9.57656 9872 ft 236 kts 102°
2026-04-27 14:26 45.54421 9.59968 10552 ft 236 kts 70°
2026-04-27 14:26 45.55260 9.61950 11194 ft 236 kts 45°
2026-04-27 14:27 45.56378 9.63642 11891 ft 239 kts 45°
2026-04-27 14:27 45.57521 9.65378 12515 ft 241 kts 45°
2026-04-27 14:27 45.58674 9.67139 13222 ft 244 kts 45°
2026-04-27 14:27 45.59837 9.68926 13919 ft 247 kts 45°
2026-04-27 14:28 45.61042 9.70782 14256 ft 265 kts 45°
2026-04-27 14:28 45.62355 9.72800 14454 ft 288 kts 45°
2026-04-27 14:28 45.63755 9.74997 14716 ft 308 kts 50°
2026-04-27 14:28 45.64765 9.77696 15248 ft 319 kts 72°
2026-04-27 14:29 45.65042 9.80860 15881 ft 325 kts 89°
2026-04-27 14:29 45.65029 9.84114 16557 ft 329 kts 89°
2026-04-27 14:29 45.65014 9.87410 17232 ft 333 kts 89°
2026-04-27 14:29 45.65002 9.90739 17907 ft 337 kts 89°
2026-04-27 14:30 45.64990 9.94113 18528 ft 341 kts 89°
2026-04-27 14:30 45.64978 9.97524 19114 ft 345 kts 89°
2026-04-27 14:30 45.64965 10.00967 19686 ft 348 kts 89°
2026-04-27 14:30 45.64949 10.04398 20262 ft 351 kts 89°
2026-04-27 14:31 45.64932 10.07904 20828 ft 355 kts 89°
2026-04-27 14:31 45.64916 10.11446 21370 ft 358 kts 89°
2026-04-27 14:31 45.64904 10.15019 21918 ft 361 kts 89°
2026-04-27 14:31 45.64899 10.18631 22482 ft 365 kts 89°
2026-04-27 14:32 45.64895 10.22271 23036 ft 368 kts 89°
2026-04-27 14:32 45.64889 10.25941 23594 ft 371 kts 89°
2026-04-27 14:32 45.64880 10.29679 23849 ft 383 kts 89°
2026-04-27 14:32 45.64870 10.33503 23968 ft 397 kts 89°
2026-04-27 14:33 45.64858 10.37520 24087 ft 412 kts 89°
2026-04-27 14:33 45.64845 10.41670 24306 ft 422 kts 89°
2026-04-27 14:33 45.64830 10.45892 24711 ft 427 kts 89°
2026-04-27 14:33 45.64661 10.50141 25138 ft 431 kts 97°
2026-04-27 14:34 45.64020 10.54334 25579 ft 434 kts 106°
2026-04-27 14:34 45.63114 10.58470 26015 ft 437 kts 107°
2026-04-27 14:34 45.62205 10.62626 26455 ft 440 kts 106°
2026-04-27 14:34 45.61305 10.66755 26888 ft 442 kts 106°
2026-04-27 14:35 45.60392 10.70961 27299 ft 445 kts 106°
2026-04-27 14:35 45.59474 10.75191 27726 ft 447 kts 106°
2026-04-27 14:35 45.58549 10.79446 28141 ft 450 kts 106°
2026-04-27 14:35 45.57619 10.83724 28551 ft 453 kts 106°
2026-04-27 14:36 45.56680 10.88024 28965 ft 456 kts 106°
2026-04-27 14:36 45.55730 10.92353 29373 ft 458 kts 106°
2026-04-27 14:36 45.54771 10.96703 29766 ft 461 kts 106°
2026-04-27 14:36 45.53806 11.01072 30190 ft 463 kts 106°
2026-04-27 14:37 45.52837 11.05456 30516 ft 465 kts 106°
2026-04-27 14:37 45.51873 11.09802 30850 ft 467 kts 106°
2026-04-27 14:37 45.50889 11.14230 31214 ft 469 kts 106°
2026-04-27 14:37 45.49898 11.18676 31544 ft 472 kts 106°
2026-04-27 14:38 45.48906 11.23137 31949 ft 472 kts 106°
2026-04-27 14:38 45.47916 11.27587 32450 ft 470 kts 106°
2026-04-27 14:38 45.46926 11.32017 32925 ft 469 kts 106°
2026-04-27 14:38 45.45935 11.36435 33412 ft 468 kts 106°
2026-04-27 14:39 45.44944 11.40841 33884 ft 466 kts 106°
2026-04-27 14:39 45.43952 11.45230 34306 ft 465 kts 106°
2026-04-27 14:39 45.42960 11.49610 34685 ft 464 kts 106°
2026-04-27 14:39 45.41951 11.53911 35048 ft 464 kts 108°
2026-04-27 14:40 45.40851 11.58231 35404 ft 464 kts 109°
2026-04-27 14:40 45.39693 11.62513 35769 ft 464 kts 110°
2026-04-27 14:40 45.38505 11.66778 36128 ft 464 kts 110°
2026-04-27 14:40 45.37316 11.71038 36502 ft 463 kts 110°
2026-04-27 14:41 45.36141 11.75299 36812 ft 463 kts 109°
2026-04-27 14:41 45.34980 11.79564 37035 ft 463 kts 109°
2026-04-27 14:41 45.33831 11.83829 37096 ft 460 kts 109°
2026-04-27 14:42 45.31575 11.92245 37091 ft 458 kts 109°
2026-04-27 14:42 45.29293 12.00690 37104 ft 458 kts 109°
2026-04-27 14:43 45.26946 12.09096 37102 ft 458 kts 112°
2026-04-27 14:43 45.24243 12.17292 37112 ft 459 kts 115°
2026-04-27 14:44 45.21384 12.25394 37112 ft 459 kts 115°
2026-04-27 14:44 45.18590 12.33475 37114 ft 460 kts 114°
2026-04-27 14:45 45.15834 12.41644 37129 ft 460 kts 114°
2026-04-27 14:45 45.13244 12.49914 37127 ft 458 kts 106°
2026-04-27 14:46 45.11753 12.58595 37123 ft 457 kts 101°
2026-04-27 14:46 45.10334 12.67365 37122 ft 457 kts 101°
2026-04-27 14:47 45.08896 12.76133 37133 ft 457 kts 101°
2026-04-27 14:47 45.07444 12.84899 37123 ft 458 kts 101°
2026-04-27 14:48 45.05986 12.93665 37119 ft 458 kts 101°
2026-04-27 14:48 45.03812 13.06748 37118 ft 458 kts 101°
2026-04-27 14:49 45.02345 13.15507 37126 ft 458 kts 101°
2026-04-27 14:49 45.00870 13.24264 37121 ft 458 kts 102°
2026-04-27 14:50 44.99387 13.33024 37119 ft 458 kts 102°
2026-04-27 14:50 44.97904 13.41771 37108 ft 458 kts 102°
2026-04-27 14:51 44.96417 13.50459 37128 ft 458 kts 102°
2026-04-27 14:51 44.95164 13.57715 37127 ft 458 kts 102°
2026-04-27 14:52 44.93393 13.67922 37127 ft 458 kts 102°
2026-04-27 14:52 44.91879 13.76652 37129 ft 458 kts 102°
2026-04-27 14:53 44.90372 13.85319 37136 ft 458 kts 102°
2026-04-27 14:53 44.88848 13.94030 37131 ft 458 kts 102°
2026-04-27 14:54 44.87229 14.02720 37130 ft 458 kts 103°
2026-04-27 14:54 44.85548 14.11390 37116 ft 458 kts 103°
2026-04-27 14:55 44.83867 14.20050 37122 ft 458 kts 103°
2026-04-27 14:55 44.82216 14.28657 37118 ft 458 kts 103°
2026-04-27 14:56 44.80560 14.37329 37116 ft 459 kts 103°
2026-04-27 14:56 44.78893 14.46003 37114 ft 459 kts 103°
2026-04-27 14:57 44.77204 14.54666 37116 ft 459 kts 103°
2026-04-27 14:57 44.75503 14.63339 37126 ft 460 kts 103°
2026-04-27 14:58 44.73818 14.71949 37127 ft 460 kts 103°
2026-04-27 14:58 44.72124 14.80621 37126 ft 460 kts 103°
2026-04-27 14:59 44.70414 14.89287 37126 ft 460 kts 103°
2026-04-27 14:59 44.68689 14.97950 37127 ft 460 kts 104°
2026-04-27 15:00 44.66959 15.06608 37127 ft 460 kts 104°
2026-04-27 15:00 44.65228 15.15253 37127 ft 460 kts 104°
2026-04-27 15:01 44.63503 15.23835 37128 ft 460 kts 104°
2026-04-27 15:01 44.61756 15.32471 37131 ft 459 kts 104°
2026-04-27 15:02 44.60004 15.41090 37127 ft 459 kts 104°
2026-04-27 15:02 44.58245 15.49706 37130 ft 459 kts 104°
2026-04-27 15:03 44.56481 15.58313 37126 ft 460 kts 104°
2026-04-27 15:03 44.54722 15.66871 37136 ft 460 kts 104°
2026-04-27 15:04 44.52946 15.75484 37138 ft 460 kts 104°
2026-04-27 15:04 44.51163 15.84089 37131 ft 460 kts 104°
2026-04-27 15:05 44.49374 15.92693 37131 ft 460 kts 104°
2026-04-27 15:05 44.47582 16.01299 37130 ft 460 kts 104°
2026-04-27 15:06 44.45788 16.09836 37132 ft 460 kts 104°
2026-04-27 15:06 44.43985 16.18428 37136 ft 460 kts 104°
2026-04-27 15:07 44.42265 16.27039 37132 ft 459 kts 103°
2026-04-27 15:07 44.40573 16.35656 37149 ft 459 kts 103°
2026-04-27 15:08 44.38858 16.44254 37138 ft 459 kts 103°
2026-04-27 15:08 44.37132 16.52785 37140 ft 459 kts 103°
2026-04-27 15:09 44.35387 16.61369 37130 ft 459 kts 103°
2026-04-27 15:09 44.33646 16.69944 37139 ft 459 kts 103°
2026-04-27 15:10 44.31902 16.78514 37139 ft 459 kts 103°
2026-04-27 15:10 44.30157 16.87029 37140 ft 459 kts 104°
2026-04-27 15:11 44.28386 16.95591 37138 ft 459 kts 104°
2026-04-27 15:11 44.26608 17.04148 37148 ft 459 kts 104°
2026-04-27 15:12 44.24833 17.12700 37143 ft 460 kts 104°
2026-04-27 15:12 44.23058 17.21204 37138 ft 460 kts 104°
2026-04-27 15:13 44.21265 17.29763 37140 ft 460 kts 104°
2026-04-27 15:13 44.19470 17.38313 37142 ft 460 kts 104°
2026-04-27 15:14 44.17664 17.46862 37141 ft 460 kts 104°
2026-04-27 15:14 44.15845 17.55408 37134 ft 460 kts 104°
2026-04-27 15:15 44.14031 17.63898 37128 ft 461 kts 104°
2026-04-27 15:15 44.12205 17.72446 37136 ft 461 kts 104°
2026-04-27 15:16 44.10374 17.80998 37125 ft 461 kts 104°
2026-04-27 15:16 44.08534 17.89549 37127 ft 462 kts 104°
2026-04-27 15:17 44.06692 17.98041 37119 ft 462 kts 105°
2026-04-27 15:17 44.04830 18.06591 37124 ft 462 kts 105°
2026-04-27 15:18 44.02959 18.15143 37113 ft 463 kts 105°
2026-04-27 15:18 44.01082 18.23695 37107 ft 463 kts 105°
2026-04-27 15:19 43.99206 18.32241 37105 ft 463 kts 105°
2026-04-27 15:19 43.97331 18.40725 37103 ft 463 kts 105°
2026-04-27 15:20 43.95437 18.49264 37107 ft 463 kts 105°
2026-04-27 15:20 43.93538 18.57793 37102 ft 463 kts 105°
2026-04-27 15:21 43.91627 18.66323 37111 ft 463 kts 105°
2026-04-27 15:21 43.89711 18.74846 37110 ft 464 kts 105°
2026-04-27 15:22 43.87799 18.83326 37106 ft 464 kts 105°
2026-04-27 15:22 43.85866 18.91874 37107 ft 465 kts 106°
2026-04-27 15:23 43.83922 19.00421 37109 ft 465 kts 106°
2026-04-27 15:23 43.81975 19.08970 37118 ft 466 kts 106°
2026-04-27 15:24 43.80026 19.17474 37114 ft 466 kts 106°
2026-04-27 15:24 43.78054 19.26027 37118 ft 466 kts 106°
2026-04-27 15:25 43.76071 19.34574 37120 ft 467 kts 106°
2026-04-27 15:25 43.74094 19.43125 37127 ft 467 kts 106°
2026-04-27 15:26 43.72122 19.51620 37119 ft 467 kts 107°
2026-04-27 15:26 43.70125 19.60169 37124 ft 468 kts 107°
2026-04-27 15:27 43.68117 19.68722 37131 ft 468 kts 107°
2026-04-27 15:27 43.66146 19.77229 37138 ft 468 kts 106°
2026-04-27 15:28 43.64312 19.85851 37137 ft 468 kts 104°
2026-04-27 15:28 43.62528 19.94497 37142 ft 469 kts 105°
2026-04-27 15:29 43.60706 20.03135 37138 ft 469 kts 105°
2026-04-27 15:29 43.59162 20.10293 37142 ft 469 kts 105°
2026-04-27 15:30 43.56986 20.20312 37143 ft 469 kts 105°
2026-04-27 15:30 43.55107 20.28929 37144 ft 470 kts 105°
2026-04-27 15:31 43.53544 20.36096 37132 ft 470 kts 106°
2026-04-27 15:31 43.51661 20.44712 37138 ft 470 kts 106°
2026-04-27 15:32 43.49464 20.54723 37149 ft 470 kts 106°
2026-04-27 15:32 43.47875 20.61933 37158 ft 470 kts 106°
2026-04-27 15:33 43.45986 20.70485 37157 ft 470 kts 106°
2026-04-27 15:33 43.44078 20.79087 37167 ft 470 kts 107°
2026-04-27 15:34 43.42159 20.87679 37165 ft 470 kts 107°
2026-04-27 15:34 43.40233 20.96267 37165 ft 470 kts 107°
2026-04-27 15:35 43.38313 21.04797 37166 ft 470 kts 107°
2026-04-27 15:35 43.36377 21.13380 37163 ft 470 kts 107°
2026-04-27 15:36 43.34428 21.21959 37161 ft 470 kts 107°
2026-04-27 15:36 43.32469 21.30533 37159 ft 470 kts 107°
2026-04-27 15:37 43.30523 21.39042 37162 ft 470 kts 107°
2026-04-27 15:37 43.28559 21.47639 36500 ft 477 kts 107°
2026-04-27 15:38 43.27557 21.52008 35703 ft 482 kts 107°
2026-04-27 15:38 43.26543 21.56412 34928 ft 486 kts 108°
2026-04-27 15:38 43.25526 21.60825 34402 ft 484 kts 108°
2026-04-27 15:38 43.24511 21.65214 33822 ft 482 kts 108°
2026-04-27 15:39 43.23498 21.69582 33291 ft 478 kts 108°
2026-04-27 15:39 43.22490 21.73910 32741 ft 475 kts 108°
2026-04-27 15:39 43.21500 21.78151 32208 ft 472 kts 108°
2026-04-27 15:39 43.20502 21.82418 31664 ft 469 kts 108°
2026-04-27 15:40 43.19510 21.86660 31139 ft 465 kts 108°
2026-04-27 15:40 43.18525 21.90863 30603 ft 462 kts 108°
2026-04-27 15:40 43.17544 21.95043 30052 ft 459 kts 108°
2026-04-27 15:40 43.16569 21.99192 29503 ft 455 kts 108°
2026-04-27 15:41 43.15605 22.03286 29002 ft 449 kts 108°
2026-04-27 15:41 43.14664 22.07279 28521 ft 444 kts 108°
2026-04-27 15:41 43.13721 22.11279 28036 ft 439 kts 108°
2026-04-27 15:41 43.12789 22.15232 27571 ft 434 kts 108°
2026-04-27 15:42 43.11866 22.19143 27115 ft 429 kts 108°
2026-04-27 15:42 43.10949 22.23007 26674 ft 425 kts 108°
2026-04-27 15:42 43.10036 22.26838 26236 ft 422 kts 108°
2026-04-27 15:42 43.09127 22.30643 25785 ft 419 kts 109°
2026-04-27 15:43 43.08224 22.34421 25348 ft 416 kts 109°
2026-04-27 15:43 43.07324 22.38173 24900 ft 414 kts 109°
2026-04-27 15:43 43.06440 22.41862 24453 ft 413 kts 109°
2026-04-27 15:43 43.05549 22.45584 23991 ft 412 kts 109°
2026-04-27 15:44 43.04657 22.49299 23484 ft 411 kts 109°
2026-04-27 15:44 43.03765 22.53002 22993 ft 408 kts 109°
2026-04-27 15:44 43.02877 22.56675 22513 ft 405 kts 109°
2026-04-27 15:44 43.01997 22.60309 22037 ft 402 kts 109°
2026-04-27 15:45 43.01124 22.63917 21556 ft 398 kts 109°
2026-04-27 15:45 43.00256 22.67497 21077 ft 395 kts 109°
2026-04-27 15:45 42.99394 22.71047 20595 ft 392 kts 109°
2026-04-27 15:45 42.98537 22.74569 20121 ft 389 kts 108°
2026-04-27 15:46 42.97649 22.77983 19676 ft 385 kts 114°
2026-04-27 15:46 42.96350 22.81140 19235 ft 380 kts 126°
2026-04-27 15:46 42.94684 22.83908 18788 ft 376 kts 131°
2026-04-27 15:46 42.92984 22.86598 18339 ft 373 kts 131°
2026-04-27 15:47 42.91301 22.89269 17859 ft 369 kts 131°
2026-04-27 15:47 42.89646 22.91904 17438 ft 364 kts 130°
2026-04-27 15:47 42.88012 22.94508 16999 ft 359 kts 130°
2026-04-27 15:47 42.86397 22.97075 16576 ft 355 kts 130°
2026-04-27 15:48 42.84819 22.99578 16167 ft 351 kts 130°
2026-04-27 15:48 42.83239 23.02086 15754 ft 347 kts 130°
2026-04-27 15:48 42.81671 23.04572 15342 ft 344 kts 130°
2026-04-27 15:49 42.78580 23.09469 14532 ft 338 kts 130°
2026-04-27 15:49 42.77050 23.11889 14132 ft 336 kts 130°
2026-04-27 15:49 42.75530 23.14286 13713 ft 333 kts 130°
2026-04-27 15:49 42.74022 23.16660 13304 ft 330 kts 130°
2026-04-27 15:50 42.72528 23.19011 12916 ft 326 kts 130°
2026-04-27 15:50 42.71072 23.21306 12539 ft 323 kts 131°
2026-04-27 15:50 42.69609 23.23612 12154 ft 321 kts 131°
2026-04-27 15:50 42.68154 23.25902 11769 ft 319 kts 131°
2026-04-27 15:51 42.66708 23.28174 11381 ft 317 kts 131°
2026-04-27 15:51 42.65270 23.30435 11010 ft 315 kts 131°
2026-04-27 15:51 42.63839 23.32683 10639 ft 314 kts 132°
2026-04-27 15:51 42.62545 23.35056 10264 ft 313 kts 120°
2026-04-27 15:52 42.61712 23.37740 10162 ft 309 kts 105°
2026-04-27 15:52 42.61333 23.40575 9763 ft 314 kts 94°
2026-04-27 15:52 42.61147 23.43544 9381 ft 312 kts 93°
2026-04-27 15:52 42.60980 23.46441 8962 ft 305 kts 93°
2026-04-27 15:53 42.60816 23.49286 8209 ft 300 kts 94°